Showing default

OPS 1527 (OV3-1), 2150

Orbit data source: Space-Track

OPS 1527 (OV3-1), 2150 is a payload satellite owned by USAF OAR (US) in LEO that was launched on Fri, 22 Apr 1966 UTC via an SCOUT B launch vehicle from the Air Force Western Test Range (AFWTR). Payload-class satellites include a variety of spacecraft equipped with specific instruments for various scientific and technological missions. These include communications satellites like Starlink; space stations such as the ISS; scientific satellites like the Hubble; Earth observation satellites from companies like Planet Labs, Umbra, and HawkEye 360; GPS; miniature CubeSats for education and research; and military/defense satellites.

Loading next visibility...
Identifier
2150, 1966-034A
Orbit
LEO
Country
Flag of USUS
Related business
Manufacturer
Space General
Mission
Spacecraft
Bus & Motor
OV3, Unknown motor
Mass
69 kg wet, 69 kg dry
Launch date (UTC)
1966-04-22 (60 years ago)
Launch vehicle
SCOUT B
Launch site
Air Force Western Test Range (AFWTR)
Object type
Payload
Rocket body
Debris
Shape & HBR
Unknown
Radar Cross Section
Medium (>0.1 m² and <1 m²)

Expand to show TLE details & history
Last TLE update: 8 hours ago

TLE from 8 hours ago
0 OPS 1527 (OV3-1)
1 02150U 66034A   25310.87315368  .00015362  00000-0  81880-3 0  9994
2 02150  82.3675 327.9945 1418614 185.7795 172.5282 12.56006133373891
Epoch: 2025-11-06T20:57Z
TLE epoch observation values (Epoch: 2025-11-06T20:57:20.477Z)
Latitude
-0.00008°
Longitude
-32.66606°
Altitude
2,544.225 km
Speed
6.196 km/s
True Right ascension
21h 51m 58s
True Declination
0° 00' 00"
Sunlit
Object was in daylight at epoch
Visualization orbit readout
Latitude
Unknown
Longitude
Unknown
Altitude
Unknown
Speed
Unknown
Apparent Right ascension
Unknown
Apparent Declination
Unknown
Sunlit
N/A
Visualization observer readout
Local Sidereal Time
01:23:53
Azimuth
Unknown
Elevation
Unknown
Doppler factor
Unknown
Orbital elements
Apogee altitude
2,545.356 km
Perigee altitude
328.1 km
Semi-major axis
7,814.865 km
Eccentricity
0.14186
Inclination
82.3675°
RAAN
327.9945°
Arg. of periapsis
185.7795°
True anomaly
174.32431°
Mean anomaly
172.5282°
Eccentric anomaly
173.45471°
Mean motion
3.14167 °/min
Orbital period
114.59 mins
BSTAR
0.0008188
Loading maneuver chart data...
Computing Atmospheric mass density...
Loading historical data...
Loading historical data...
Loading historical data...
Loading historical data...
Loading historical data...
Loading historical data...
Loading historical data...
Other satellites on launch #34 in the year 1966 (1966-04-22 UTC)

Documentation

Showing up to 5 results
|